FENGYUN 1C DEB, 37428

Orbit data source: Space-Track

FENGYUN 1C DEB, 37428 is space debris in SSO originally from a launch on Mon, 10 May 1999 UTC launched from the Taiyaun Space Center, China (TSC). Fengyun 1C debris stems from the Chinese weather satellite Fengyun-1C, which was intentionally destroyed by a Chinese anti-satellite missile in 2007. This event dramatically increased the amount of space debris, with thousands of trackable fragments posing hazards to satellites and human spaceflight. The Fengyun 1C debris cloud has become a focal point in discussions about space sustainability and the need for international regulations to prevent the creation of new debris.

Loading next visibility...
Identifier
37428, 1999-025EGW
Orbit
SSO
Country
Flag of CNCN / PRC
Related business
Manufacturer
Unknown
Mission
Spacecraft
Bus & Motor
Unknown
Mass
Unknown
Launch date (UTC)
1999-05-10 (27 years ago)
Launch vehicle
Unknown
Launch site
Taiyaun Space Center, China (TSC)
Object type
Payload
Rocket body
Debris
Shape & HBR
Unknown shape, 0.1 m
Radar Cross Section
Small (<0.1 m²)

Expand to show TLE details & history
Last TLE update: 2 weeks ago

TLE from 2 weeks ago
0 FENGYUN 1C DEB
1 37428U 99025EGW 26223.31196092  .00002205  00000-0  74013-3 0  9992
2 37428  97.7039  65.7548 0056088  85.5855 275.1739 14.37160085669032
Epoch: 2026-08-11T07:29Z
TLE epoch observation values (Epoch: 2026-08-11T07:29:13.423Z)
Latitude
-0.00005°
Longitude
-6.33318°
Altitude
767.474 km
Speed
7.472 km/s
True Right ascension
04h 23m 01s
True Declination
0° 00' 00"
Sunlit
Object was in daylight at epoch
Visualization orbit readout
Latitude
Unknown
Longitude
Unknown
Altitude
Unknown
Speed
Unknown
Apparent Right ascension
Unknown
Apparent Declination
Unknown
Sunlit
N/A
Visualization observer readout
Local Sidereal Time
14:53:16
Azimuth
Unknown
Elevation
Unknown
Doppler factor
Unknown
Orbital elements
Apogee altitude
805.051 km
Perigee altitude
724.922 km
Semi-major axis
7,143.124 km
Eccentricity
0.00561
Inclination
97.7039°
RAAN
65.7548°
Arg. of periapsis
85.5855°
True anomaly
274.53341°
Mean anomaly
275.1739°
Eccentric anomaly
274.85369°
Mean motion
3.5951 °/min
Orbital period
100.14 mins
BSTAR
0.00074013
Loading maneuver chart data...
Computing Atmospheric mass density...
Loading historical data...
Loading historical data...
Loading historical data...
Loading historical data...
Loading historical data...
Loading historical data...
Loading historical data...

Documentation

Showing up to 5 results
|